GW4090 Weather Reports


time (UTC)temp
C
wind
direction
speed
KPH
gust
KPH
rain 1hr
cm
rain 24hr
cm
rain mn
cm
humidity
%
barometer
mb
20260906113017 21 304 0.0 0.0 0.03 0.18 0.03 97 1011.6
20260906111527 20 304 0.0 0.0 0.00 0.15 0.00 97 1011.7
20260906110030 20 304 0.0 0.0 0.00 0.15 0.00 96 1011.6
20260906104506 20 304 0.0 0.0 0.00 0.15 0.00 96 1011.4
20260906103006 21 304 0.0 0.0 0.00 0.15 0.00 96 1011.3
20260906101508 21 304 0.0 3.2 0.00 0.15 0.00 96 1011.2
20260906100008 21 318 0.0 0.0 0.00 0.15 0.00 96 1011.2
20260906094507 21 318 0.0 3.2 0.00 0.15 0.00 96 1010.9
20260906093015 21 319 0.0 3.2 0.00 0.15 0.00 96 1010.8
20260906091507 21 319 0.0 1.6 0.00 0.15 0.00 96 1010.7
20260906090004 21 319 0.0 3.2 0.00 0.15 0.00 96 1010.7
20260906084507 21 299 0.0 3.2 0.00 0.15 0.00 96 1010.6
20260906083010 21 299 0.0 3.2 0.00 0.15 0.00 96 1010.8
20260906081512 21 299 0.0 3.2 0.00 0.15 0.00 96 1011.0
20260906080010 21 351 0.0 1.6 0.00 0.15 0.00 96 1011.2
20260906074506 21 352 0.0 3.2 0.00 0.15 0.00 96 1011.2
20260906073015 21 352 0.0 3.2 0.00 0.15 0.00 96 1010.9
20260906071517 21 352 0.0 3.2 0.00 0.15 0.00 96 1011.3
20260906070017 21 352 0.0 3.2 0.00 0.15 0.00 96 1011.4
20260906064516 21 352 0.0 3.2 0.00 0.15 0.00 96 1011.4
20260906063009 21 352 0.0 1.6 0.00 0.15 0.00 96 1011.5
20260906061511 21 352 0.0 0.0 0.00 0.15 0.00 96 1011.5
20260906060017 21 22 0.0 0.0 0.00 0.15 0.00 96 1011.5
20260906054523 21 22 0.0 0.0 0.00 0.15 0.00 95 1011.6
20260906053026 21 22 0.0 0.0 0.00 0.15 0.00 95 1011.6
20260906051511 22 21 0.0 3.2 0.00 0.15 0.00 95 1011.7
20260906050018 22 22 0.0 0.0 0.00 0.15 0.00 95 1011.7
20260906044520 22 20 0.0 1.6 0.00 0.15 0.00 95 1012.0
20260906043033 22 20 0.0 3.2 0.00 0.15 0.00 95 1012.0
20260906041521 22 24 0.0 3.2 0.00 0.15 0.00 95 1011.9
20260906040014 22 316 1.6 6.4 0.00 0.15 0.00 95 1012.2
20260906034524 22 223 0.0 3.2 0.00 0.15 0.15 95 1012.0
20260906033026 22 193 1.6 3.2 0.00 0.15 0.15 95 1012.2
20260906031525 22 214 0.0 3.2 0.00 0.15 0.15 95 1012.3
20260906030028 22 261 0.0 3.2 0.00 0.15 0.15 94 1012.3
20260906024516 22 258 1.6 4.8 0.00 0.15 0.15 94 1012.1
20260906023021 22 198 0.0 3.2 0.00 0.15 0.15 94 1011.8
20260906021529 22 221 0.0 11.3 0.00 0.15 0.15 94 1011.4
20260906020026 22 84 3.2 6.4 0.00 0.15 0.15 94 1011.6
20260906014541 22 288 3.2 3.2 0.08 0.15 0.15 94 1011.1
20260906013020 23 289 1.6 4.8 0.15 0.15 0.15 93 1010.3
20260906011526 23 172 3.2 12.9 0.15 0.15 0.15 91 1009.7
20260906010032 23 154 3.2 4.8 0.15 0.15 0.15 91 1010.4
20260906004529 24 138 4.8 8.0 0.08 0.08 0.08 85 1011.3
20260906003031 27 277 4.8 17.7 0.00 0.00 0.00 70 1012.7
20260906001522 28 260 3.2 4.8 0.00 0.00 0.00 87 1012.0
20260906000030 28 223 0.0 3.2 0.00 0.00 0.00 87 1011.6
20260905234530 28 257 0.0 1.6 0.00 0.00 0.00 86 1011.7
20260905233031 28 196 0.0 3.2 0.00 0.00 0.00 85 1011.5
20260905231511 30 196 0.0 3.2 0.00 0.00 0.00 81 1011.7
20260905230003 30 176 0.0 4.8 0.00 0.00 0.00 79 1011.4
20260905224508 31 202 1.6 9.7 0.00 0.00 0.00 76 1011.2
20260905223014 31 265 1.6 9.7 0.00 0.00 0.00 76 1011.3
20260905221518 31 22 3.2 12.9 0.00 0.00 0.00 75 1011.2
20260905220003 32 81 6.4 12.9 0.00 0.00 0.00 73 1011.0
20260905214503 32 283 1.6 1.6 0.00 0.00 0.00 62 1010.8
20260905213009 33 283 3.2 3.2 0.00 0.00 0.00 59 1010.9
20260905211511 33 288 0.0 4.8 0.00 0.00 0.00 58 1010.9
20260905210024 33 36 3.2 4.8 0.00 0.00 0.00 58 1010.7
20260905204504 33 30 4.8 6.4 0.00 0.00 0.00 60 1010.7
20260905203008 34 267 3.2 4.8 0.00 0.00 0.00 56 1010.6
20260905201515 33 269 3.2 6.4 0.00 0.00 0.00 60 1010.4
20260905200018 33 269 1.6 9.7 0.00 0.00 0.00 61 1010.6
20260905194532 33 269 3.2 11.3 0.00 0.00 0.00 61 1010.7
20260905193004 33 196 3.2 8.0 0.00 0.00 0.00 64 1011.0
20260905191511 33 269 3.2 6.4 0.00 0.00 0.00 61 1011.4
20260905190046 33 269 3.2 6.4 0.00 0.00 0.00 62 1011.9
20260905184523 33 266 3.2 9.7 0.00 0.00 0.00 63 1012.1
20260905183028 33 276 0.0 9.7 0.00 0.00 0.00 64 1012.2
20260905181512 32 5 3.2 12.9 0.00 0.00 0.00 68 1012.3
20260905180019 33 269 3.2 11.3 0.00 0.00 0.00 64 1012.4
20260905174520 32 130 3.2 9.7 0.00 0.00 0.00 68 1012.7
20260905173030 32 247 6.4 9.7 0.00 0.00 0.00 64 1012.9
20260905171531 31 280 1.6 4.8 0.00 0.00 0.00 72 1013.2
20260905170013 32 27 4.8 8.0 0.00 0.00 0.00 69 1013.2
20260905164533 32 259 0.0 6.4 0.00 0.00 0.00 70 1013.5
20260905163023 31 280 1.6 6.4 0.00 0.00 0.00 71 1013.9
20260905161527 30 280 3.2 4.8 0.00 0.00 0.00 74 1014.0
20260905160031 31 280 3.2 9.7 0.00 0.00 0.00 72 1014.2
20260905154514 31 277 3.2 6.4 0.00 0.00 0.00 73 1014.3
20260905153024 30 277 1.6 9.7 0.00 0.00 0.00 76 1014.6
20260905151525 30 277 3.2 11.3 0.00 0.00 0.00 78 1014.6
20260905150032 30 277 4.8 14.5 0.00 0.00 0.00 78 1014.6
20260905144511 30 265 3.2 14.5 0.00 0.00 0.00 80 1014.6
20260905143023 28 275 4.8 12.9 0.00 0.00 0.00 81 1014.7
20260905141524 29 275 1.6 6.4 0.00 0.00 0.00 81 1014.7
20260905140028 28 275 3.2 11.3 0.00 0.00 0.00 83 1014.7
20260905134511 28 279 3.2 9.7 0.00 0.00 0.00 84 1014.9
20260905133020 28 279 1.6 4.8 0.00 0.00 0.00 87 1014.9
20260905131503 27 279 0.0 4.8 0.00 0.00 0.00 89 1015.0
20260905130002 26 279 1.6 4.8 0.00 0.00 0.00 91 1014.9
20260905124506 25 279 0.0 3.2 0.00 0.00 0.00 92 1014.8
20260905123012 25 279 0.0 3.2 0.00 0.00 0.00 93 1014.9
20260905121519 23 279 0.0 3.2 0.00 0.00 0.00 95 1014.8
20260905120003 23 278 0.0 3.2 0.00 0.00 0.00 96 1014.9
20260905114503 22 278 0.0 0.0 0.00 0.00 0.00 96 1014.7